Probability
0 0 0 0 0 0 0 0 0 0 1 2 4 5 5 6 8 12 14 12 12 16 22 26 27 28 27 24 20 16 17 18 19 20 23 24 24 22 19 14 11 10 9 10
0 0 0 0 0 0 0 0 0 0 0 1 4 6 6 7 10 14 16 16 14 18 24 28 31 31 30 28 24 20 19 21 21 21 23 23 22 20 17 13 11 11 11 11
0 0 0 0 0 0 0 0 0 0 0 2 5 8 9 9 11 15 18 20 20 22 28 32 35 35 35 33 29 24 23 24 25 24 25 25 23 21 18 15 14 14 13 13
0 0 0 0 0 0 0 0 1 1 1 2 5 8 9 10 11 14 18 22 24 26 30 35 38 39 39 37 33 29 26 27 28 28 28 29 28 26 23 20 18 16 14 14
0 0 0 0 1 2 1 1 3 3 1 2 4 6 8 10 12 14 18 22 24 26 29 33 37 40 39 37 34 30 27 26 27 27 27 28 27 26 24 22 19 17 16 15
0 0 0 1 3 3 1 3 7 6 3 3 5 8 11 13 13 15 20 23 24 25 27 30 33 35 35 32 30 27 24 22 22 22 22 22 22 22 21 21 19 18 18 17
0 0 1 2 4 4 4 6 9 8 6 5 8 12 15 17 17 18 22 25 24 25 28 29 30 31 31 29 27 25 22 20 19 19 18 18 20 21 21 20 20 20 19 19
0 1 2 4 5 6 9 11 11 9 7 8 11 15 18 21 22 23 25 25 25 27 30 31 32 33 32 30 28 26 24 24 23 21 18 17 20 22 22 21 21 20 19 18
3 4 5 6 8 9 10 11 10 7 7 9 13 15 19 22 24 25 25 25 27 29 32 35 36 34 33 32 29 27 28 28 26 23 18 17 19 20 21 21 21 20 19 17
9 9 9 9 10 10 10 9 8 6 6 9 13 16 19 22 24 26 26 26 29 30 33 37 37 35 32 30 27 26 28 28 25 20 17 17 18 17 18 19 20 19 18 17
12 12 12 12 13 12 12 11 9 7 8 11 14 17 20 23 25 26 26 25 26 28 31 33 34 32 30 27 25 24 23 22 20 16 15 16 17 16 15 14 14 15 15 16
11 12 13 14 15 15 14 13 12 11 12 15 17 18 20 23 26 26 24 23 22 23 25 27 28 28 27 26 26 23 19 16 15 15 15 16 17 17 13 9 7 7 9 10
12 12 13 14 15 16 15 13 12 12 14 16 17 18 19 21 24 25 23 21 20 20 21 21 23 25 25 25 25 22 17 14 14 16 18 18 19 20 18 11 6 4 4 4
13 13 13 13 15 17 16 14 12 11 11 13 14 15 18 20 21 21 20 19 18 17 18 19 21 23 23 23 24 20 16 13 14 16 17 17 19 22 22 16 10 8 5 3
13 13 13 13 16 17 15 13 11 9 8 9 10 13 16 17 17 16 16 16 16 16 17 18 19 20 20 19 19 18 15 13 13 14 14 15 17 20 20 15 12 12 11 8
11 11 11 13 14 14 12 10 9 8 7 7 8 10 12 13 13 14 15 15 15 15 16 17 18 18 16 15 14 14 13 11 10 10 10 10 12 15 15 13 13 13 12 11
8 9 10 11 11 10 9 8 8 7 6 5 7 8 8 10 11 13 14 14 13 13 15 17 18 15 13 12 11 11 11 9 7 7 7 6 7 10 12 12 12 12 11 10
9 8 8 9 9 9 8 8 7 7 5 5 6 6 7 9 11 12 13 12 11 13 15 16 15 13 12 11 10 10 9 7 6 5 5 6 6 8 11 11 10 9 9 8
7 7 6 7 10 10 9 7 7 6 5 5 5 6 6 9 11 11 11 11 11 12 15 15 12 10 10 8 8 9 8 6 5 5 6 6 7 8 10 10 8 7 7 7
5 5 5 7 10 12 10 8 6 5 5 5 5 5 6 9 11 11 11 10 10 12 13 12 9 7 6 5 5 6 6 4 4 5 5 5 6 8 9 7 6 5 5 6
6 5 5 7 11 12 10 8 7 6 5 5 5 6 8 10 11 11 11 10 10 11 10 9 7 5 4 3 3 4 4 3 3 4 4 4 5 6 6 5 4 4 5 5
7 7 7 8 10 11 10 10 9 8 6 6 5 7 9 11 12 11 11 10 9 8 7 6 4 2 2 2 3 3 3 3 3 3 2 3 4 4 3 2 2 4 5 5
7 7 7 8 9 9 10 12 12 9 7 6 6 7 9 11 11 10 9 8 5 3 3 3 2 0 1 2 3 3 2 3 3 2 2 2 3 3 1 0 0 2 3 4
6 7 7 7 7 7 9 11 12 10 8 6 7 8 9 9 9 7 5 4 2 1 1 1 0 0 1 2 2 1 1 1 2 2 2 2 2 1 1 0 0 1 2 4
5 5 7 8 7 6 8 10 11 10 8 7 8 9 8 6 5 4 3 2 0 0 0 0 0 0 0 1 1 0 0 0 1 1 1 1 1 1 1 1 1 2 4 7
3 3 5 6 6 6 7 8 10 11 10 8 8 8 6 4 3 3 2 1 0 0 0 0 0 0 0 0 0 0 0 0 0 0 1 1 2 2 3 3 4 5 8 10
1 1 2 3 3 5 6 7 9 11 10 9 8 6 4 3 3 3 1 0 0 0 0 0 0 0 0 0 0 0 0 0 0 1 2 3 3 3 4 5 6 7 9 10
Wind_Speed
9 6 7 9 10 11 13 12 11 8 7 4 3 4 4 5 6 6 7 7 7 7 7 7 8 8 8 7 6 6 6 6 5 5 5 4 4 3 3 2 3 3 3 3
10 9 10 10 11 11 12 11 11 10 8 4 3 3 4 5 6 6 6 7 7 7 7 7 8 8 8 7 6 6 6 5 5 4 4 4 4 3 3 3 3 3 3 3
10 9 10 13 11 12 11 10 10 10 6 3 4 5 4 5 5 5 5 5 6 6 7 7 7 7 8 7 7 7 6 5 5 5 4 4 4 4 3 4 3 3 4 4
9 9 14 5 3 7 9 8 7 6 4 4 4 4 4 4 5 5 4 5 6 6 6 6 7 7 7 7 8 7 7 6 5 5 5 4 4 4 3 3 3 3 3 4
9 11 11 6 4 5 8 7 5 6 5 4 4 5 5 5 4 4 4 4 4 5 6 6 6 6 7 7 7 6 5 5 5 5 5 5 4 3 3 3 3 3 4 4
10 12 12 4 3 3 6 7 2 3 4 5 7 7 4 6 5 5 4 4 4 5 5 6 5 6 7 6 6 5 4 4 4 4 5 4 3 3 3 3 3 4 3 4
13 12 6 2 2 5 9 1 1 2 3 5 4 1 5 6 6 5 5 5 5 5 5 5 5 5 6 6 5 4 4 3 3 3 4 4 3 3 3 3 3 3 3 4
11 13 7 3 4 3 2 3 1 1 1 2 2 4 5 6 6 5 5 5 5 5 4 4 4 5 5 4 4 4 4 4 4 4 3 3 3 3 3 3 4 4 3 4
5 3 3 2 0 1 1 1 1 1 1 3 4 4 5 5 5 5 4 4 4 5 4 4 3 3 4 3 3 4 4 4 4 4 3 3 3 4 3 4 4 3 3 3
4 3 2 1 1 1 1 1 1 0 2 3 4 4 5 4 4 4 3 3 3 4 4 3 3 2 2 3 3 4 4 4 3 3 4 3 3 3 3 3 4 3 4 4
6 4 3 3 1 1 1 0 0 1 2 3 4 4 4 4 4 3 3 2 2 2 3 3 2 2 2 3 3 3 4 4 4 4 3 3 3 3 4 3 3 4 4 4
5 2 3 2 2 1 1 1 1 1 2 3 3 4 4 4 4 3 3 2 2 2 2 2 2 2 1 2 3 4 4 4 4 4 3 4 4 3 2 4 3 5 5 6
4 4 4 2 2 2 2 1 1 2 3 3 3 3 3 3 3 3 3 2 2 1 1 1 2 1 1 2 2 3 4 3 4 4 4 4 4 4 4 4 5 7 7 7
4 3 4 3 3 2 2 2 1 2 3 3 3 3 3 3 3 3 2 2 2 2 1 1 1 1 1 2 2 3 4 3 4 4 5 5 5 5 5 5 4 4 5 7
5 5 5 3 3 2 3 3 3 4 4 4 3 3 3 3 3 3 2 1 2 2 2 1 1 1 1 2 2 3 4 3 3 4 5 5 5 5 5 5 5 4 3 3
5 4 5 5 4 4 4 4 4 4 4 4 4 4 4 4 3 3 2 2 3 2 2 2 1 1 1 2 3 3 3 2 4 4 4 4 4 4 4 5 4 4 4 3
6 6 6 6 6 6 6 5 5 4 5 5 5 5 4 4 4 4 3 3 3 2 2 2 2 1 1 2 3 3 3 2 3 4 4 4 4 4 4 5 5 5 4 3
5 6 6 6 6 6 6 5 5 5 4 5 5 5 6 5 5 4 3 3 3 3 2 2 2 1 1 2 2 2 2 2 2 3 3 3 4 4 5 5 6 6 5 3
3 4 4 5 5 5 5 5 5 5 4 5 5 6 6 5 5 4 4 4 4 4 3 3 3 3 2 2 2 2 3 3 3 3 3 3 4 4 5 5 5 5 5 4
1 2 2 2 3 3 4 4 4 4 4 5 5 5 5 6 5 5 5 5 4 3 2 2 3 3 3 2 3 3 3 3 4 4 4 4 4 4 4 5 5 5 5 5
2 2 3 2 2 3 3 3 4 4 4 4 5 5 5 5 5 5 5 5 3 2 3 3 3 3 3 2 4 4 3 4 4 4 4 4 4 4 5 5 5 5 5 5
2 2 3 3 3 3 3 3 3 3 3 3 4 4 5 5 5 4 4 3 2 2 3 3 3 1 2 3 3 4 4 4 4 4 4 4 4 4 5 5 5 5 5 5
2 3 3 3 3 3 3 3 3 4 4 4 4 4 4 3 3 3 3 2 2 2 3 2 1 1 3 4 3 4 4 4 4 4 4 4 4 5 5 5 5 5 5 5
2 3 3 2 2 2 2 2 2 3 4 4 4 3 3 3 3 2 1 2 2 2 2 1 2 3 5 4 3 3 3 4 4 4 4 4 4 4 4 5 5 5 5 6
3 3 2 2 2 1 2 2 2 3 3 3 3 3 3 2 2 2 2 2 3 3 2 2 4 5 5 3 3 3 3 3 3 4 4 4 4 4 4 4 4 5 4 4
2 2 1 2 2 1 2 2 2 2 2 3 3 3 3 2 3 3 2 3 3 3 2 2 2 4 3 3 2 2 2 2 3 3 4 4 4 4 4 4 5 4 4 4
1 1 1 1 1 1 1 1 2 2 2 2 2 2 2 2 2 2 3 2 2 2 1 1 1 1 1 1 1 1 2 2 2 3 3 3 3 3 3 4 3 3 3 3
Wind_Direction
252 252 233 226 227 226 235 248 256 253 252 236 219 214 189 181 183 183 181 185 182 183 177 176 174 172 174 174 174 177 183 188 187 195 196 199 196 196 202 217 228 225 230 229
235 234 235 235 235 238 238 242 247 252 257 246 212 196 184 183 190 192 189 190 187 183 179 180 177 174 169 169 171 178 187 188 182 191 193 197 200 201 208 220 235 231 235 238
234 221 230 233 227 232 233 236 244 250 252 212 200 195 188 188 195 196 191 182 181 180 179 179 177 174 173 169 169 177 181 179 178 186 197 204 207 204 217 224 226 235 244 243
236 219 234 234 208 233 235 233 248 254 247 221 207 187 187 188 191 189 183 178 173 175 170 170 167 169 171 166 166 171 175 178 182 189 200 204 211 220 230 238 235 238 246 251
233 230 235 211 197 223 230 226 236 243 226 200 170 171 178 163 172 180 172 162 160 162 157 154 156 158 159 161 163 168 173 177 180 190 194 201 210 217 229 239 243 247 244 248
228 237 239 208 155 207 235 218 212 243 210 191 198 219 162 144 153 153 141 137 140 143 144 145 150 156 160 165 167 173 174 173 177 189 197 204 212 227 233 237 243 251 250 255
230 237 237 90 134 199 227 228 65 237 215 206 212 341 92 131 139 140 138 134 136 138 138 141 152 160 166 166 170 172 169 164 179 196 205 209 211 223 231 241 250 255 255 252
229 237 226 114 171 218 350 21 346 254 224 197 136 117 123 131 135 137 137 138 141 138 135 143 152 162 170 169 165 167 170 172 184 199 216 204 210 220 225 241 241 241 242 255
244 252 71 117 96 18 326 294 293 244 184 164 156 142 136 135 135 135 133 133 139 137 132 134 146 168 174 159 164 175 179 187 197 202 212 227 221 222 223 226 245 252 255 260
237 212 199 218 262 280 296 297 322 214 166 166 156 141 137 132 131 131 129 136 142 139 138 136 138 148 161 157 172 186 193 198 204 210 218 220 236 238 246 245 246 254 262 265
232 225 223 217 255 298 318 328 125 152 163 161 150 146 140 135 134 133 134 140 147 149 146 146 149 160 175 173 186 199 205 209 215 221 227 231 238 252 254 256 262 261 268 271
248 217 253 242 271 268 238 218 186 161 149 143 146 145 142 138 134 138 142 145 151 160 168 168 170 174 167 175 197 210 219 223 232 235 226 237 239 239 228 249 219 228 245 260
283 285 284 259 262 257 228 218 215 193 176 160 151 150 149 147 149 153 156 159 167 186 190 189 199 195 183 194 210 227 244 249 256 255 246 246 250 254 256 231 223 224 225 233
256 252 241 233 242 242 229 220 219 206 192 175 169 171 172 170 167 169 169 169 171 177 193 206 224 216 217 218 232 241 249 243 254 259 259 254 251 256 262 267 263 255 230 223
243 240 242 239 236 232 225 214 207 204 195 193 189 190 187 187 188 184 173 177 172 177 183 206 238 255 260 246 248 257 261 263 262 268 263 265 266 263 267 272 275 277 280 233
238 235 238 237 237 232 226 219 215 211 210 209 206 198 197 200 205 202 192 192 197 199 200 225 240 265 269 263 255 251 253 261 267 268 268 271 273 274 278 277 275 275 275 280
232 232 234 238 237 235 232 227 226 222 216 215 213 208 204 202 201 197 199 199 203 212 223 241 254 257 257 261 263 268 270 233 219 255 265 272 276 278 278 279 278 277 277 276
236 238 240 241 239 239 239 235 229 225 222 221 216 209 204 204 208 207 210 208 205 206 222 240 250 240 233 248 268 282 279 277 263 268 277 275 280 278 275 275 277 280 284 266
220 223 233 236 237 237 235 233 231 227 226 225 221 217 211 206 204 206 206 209 214 212 211 211 191 208 220 234 259 249 270 277 275 275 275 272 268 270 273 276 278 278 280 280
233 235 242 252 238 233 231 229 229 225 225 225 224 214 208 206 200 200 209 219 229 241 200 191 200 213 224 220 250 255 262 271 277 279 276 275 277 278 278 281 283 284 284 282
280 272 262 258 250 241 236 226 224 225 227 225 222 216 209 206 204 204 211 216 209 213 208 193 211 219 227 232 232 257 266 274 280 280 279 281 282 282 280 282 284 286 287 286
304 292 278 266 255 252 240 228 222 220 220 220 218 209 204 206 206 209 220 234 202 196 213 213 223 235 270 259 245 256 263 270 273 278 280 282 282 281 280 282 282 283 283 282
307 296 283 271 261 259 248 233 224 217 213 210 208 207 210 213 216 216 213 194 196 200 230 231 203 181 245 247 249 254 261 269 275 281 283 283 283 280 279 280 280 281 283 283
313 306 298 286 263 247 239 230 218 214 207 199 200 202 201 199 210 224 202 146 152 187 239 176 181 225 239 241 244 255 265 273 278 281 282 279 277 279 279 282 286 288 290 289
314 303 299 286 253 234 212 207 207 200 194 180 175 185 199 203 203 197 189 184 173 202 223 180 193 219 233 243 250 259 267 279 289 293 291 290 289 289 284 284 289 288 289 290
319 313 306 283 285 262 218 208 203 187 182 179 178 177 180 181 183 185 186 191 200 217 234 219 209 216 229 237 248 263 275 276 276 282 295 297 295 293 294 294 291 293 291 285
296 297 280 282 268 253 222 196 193 190 188 182 167 168 178 184 185 181 187 190 192 211 218 217 223 233 234 243 259 279 290 297 307 314 311 308 309 307 308 304 302 304 304 307